This is the latest recevied weather packets stored in our database for station/object KI4MRC. If no packets are shown the sender has not sent any weather packets the latest 10 day(s).
| Time | Temp. | Humidity | Pressure | Rain* | Wind** | Luminosity | Snow |
|---|---|---|---|---|---|---|---|
| 1778087648 | 31.11° C | 53% | 1016.7 hPa | 0 mm | - | 1010 W/m² | - |
| 1778087347 | 31.11° C | 56% | 1017 hPa | 0 mm | - | 1028 W/m² | - |
| 1778087042 | 31.67° C | 56% | 1016.9 hPa | 0 mm | - | 1023 W/m² | - |
| 1778086741 | 31.11° C | 55% | 1016.9 hPa | 0 mm | - | 912 W/m² | - |
| 1778086439 | 30.56° C | 58% | 1017 hPa | 0 mm | - | 1013 W/m² | - |
| 1778086135 | 30.56° C | 57% | 1017.2 hPa | 0 mm | - | 1045 W/m² | - |
| 1778085831 | 31.11° C | 57% | 1017.2 hPa | 0 mm | - | 1016 W/m² | - |
| 1778085530 | 31.11° C | 58% | 1017.3 hPa | 0 mm | - | 990 W/m² | - |
| 1778085224 | 31.11° C | 60% | 1017.2 hPa | 0 mm | - | 1005 W/m² | - |
| 1778084919 | 31.11° C | 59% | 1017.3 hPa | 0 mm | - | 979 W/m² | - |
| 1778084618 | 31.11° C | 59% | 1017.3 hPa | 0 mm | - | 947 W/m² | - |
| 1778084315 | 31.11° C | 59% | 1017.3 hPa | 0 mm | - | 974 W/m² | - |
| 1778084012 | 31.11° C | 64% | 1017.4 hPa | 0 mm | - | 931 W/m² | - |
| 1778083704 | 31.11° C | 58% | 1017.4 hPa | 0 mm | - | 972 W/m² | - |
| 1778083400 | 31.11° C | 58% | 1017.3 hPa | 0 mm | - | 951 W/m² | - |
| 1778083099 | 30.56° C | 61% | 1017.2 hPa | 0 mm | - | 970 W/m² | - |
| 1778082795 | 30.56° C | 61% | 1017.4 hPa | 0 mm | - | 948 W/m² | - |
| 1778081667 | 30.56° C | 66% | 1017.4 hPa | 0 mm | - | 864 W/m² | - |
| 1778081365 | 30° C | 69% | 1017.4 hPa | 0 mm | - | 861 W/m² | - |
| 1778081061 | 30° C | 67% | 1017.1 hPa | 0 mm | - | 873 W/m² | - |
| 1778080760 | 29.44° C | 68% | 1017.3 hPa | 0 mm | - | 888 W/m² | - |
| 1778080456 | 30° C | 67% | 1017.3 hPa | 0 mm | - | 319 W/m² | - |
| 1778080154 | 29.44° C | 68% | 1017.3 hPa | 0 mm | - | 462 W/m² | - |
| 1778079850 | 30° C | 67% | 1017.2 hPa | 0 mm | - | 241 W/m² | - |
| 1778079547 | 30.56° C | 67% | 1017.4 hPa | 0 mm | - | 810 W/m² | - |
* Rain latest hour (hover to see other rain measurements)
** Current wind speed in m/s (hover to see current wind gust speed)